{"data":{"norad_id":53006,"intl_designator":"2022-076W","name":"STARLINK-4290","alt_names":[],"object_type":"PAYLOAD","status":"ACTIVE","operator":null,"country":"US","launch_date":"2022-07-07","launch_site_code":"AFETR","launch_vehicle":null,"mission":null,"orbit_class":"UNKNOWN","rcs_meters":null,"size_class":null,"mass_kg":null,"dimensions":null,"purposes":["comms"],"wikipedia_slug":null,"has_3d_model":false,"image_url":null,"decayed_at":null,"tle_current":{"epoch":"2026-05-25T04:11:24.914688Z","epoch_age_seconds":66761,"freshness":"FRESH","line1":"1 53006U 22076W   26145.17459392 -.00000576  00000+0 -18124-4 0  9998","line2":"2 53006  53.2172 110.7668 0001104  61.3967 298.7136 15.08835279214396","mean_motion":15.08835279,"eccentricity":0.0001104,"inclination_deg":53.2172,"raan_deg":110.7668,"arg_perigee_deg":61.3967,"mean_anomaly_deg":298.7136,"bstar":-1.8124e-5,"rev_number":21439,"period_min":95.437853292665,"perigee_km":538.99408362202,"apogee_km":540.52155479811,"semimajor_km":6917.8948192101,"source":"CELESTRAK","updated_at":"2026-05-25T13:38:17.277417Z"}}}